TimeCDT,TemperatureF,Dew PointF,Humidity,Sea Level PressureIn,VisibilityMPH,Wind Direction,Wind SpeedMPH,Gust SpeedMPH,PrecipitationIn,Events,Conditions,WindDirDegrees,DateUTC
12:52 AM,24.1,18.0,77,30.50,-9999.0,East,8.1,-,N/A,,Unknown,80,2013-10-29 05:52:00
1:52 AM,26.1,19.0,75,30.48,-9999.0,SE,9.2,-,N/A,,Unknown,130,2013-10-29 06:52:00
2:52 AM,26.1,19.0,75,30.45,-9999.0,SE,10.4,-,N/A,,Unknown,140,2013-10-29 07:52:00
3:52 AM,26.1,19.0,75,30.42,-9999.0,SE,9.2,-,N/A,,Unknown,140,2013-10-29 08:52:00
4:52 AM,26.1,19.0,75,30.39,-9999.0,SE,8.1,-,N/A,,Unknown,130,2013-10-29 09:52:00
5:52 AM,24.1,19.9,84,30.36,-9999.0,ESE,4.6,-,N/A,,Unknown,120,2013-10-29 10:52:00
6:52 AM,25.0,19.9,81,30.36,-9999.0,ESE,5.8,-,N/A,,Unknown,120,2013-10-29 11:52:00
7:52 AM,26.1,21.0,81,30.35,-9999.0,SE,6.9,-,N/A,,Unknown,140,2013-10-29 12:52:00
8:52 AM,26.1,19.9,78,30.36,-9999.0,SE,8.1,-,N/A,,Unknown,140,2013-10-29 13:52:00
9:52 AM,27.0,21.0,78,30.34,-9999.0,SE,6.9,-,N/A,,Unknown,140,2013-10-29 14:52:00
10:52 AM,28.0,21.9,78,30.32,-9999.0,SE,6.9,-,N/A,,Unknown,140,2013-10-29 15:52:00
11:52 AM,30.0,23.0,75,30.30,-9999.0,SE,8.1,-,N/A,,Unknown,140,2013-10-29 16:52:00
12:52 PM,33.1,25.0,72,30.28,-9999.0,South,8.1,-,N/A,,Unknown,190,2013-10-29 17:52:00
1:52 PM,35.1,25.0,67,30.23,-9999.0,South,10.4,-,N/A,,Unknown,170,2013-10-29 18:52:00
2:52 PM,37.0,26.1,65,30.19,-9999.0,South,11.5,-,N/A,,Unknown,170,2013-10-29 19:52:00
3:52 PM,37.9,26.1,62,30.17,-9999.0,South,6.9,-,N/A,,Unknown,190,2013-10-29 20:52:00
4:52 PM,37.0,26.1,65,30.16,-9999.0,South,5.8,-,N/A,,Unknown,180,2013-10-29 21:52:00
5:52 PM,37.0,25.0,62,30.16,-9999.0,SSE,6.9,-,N/A,,Unknown,160,2013-10-29 22:52:00
6:52 PM,35.1,26.1,70,30.16,-9999.0,South,5.8,-,N/A,,Unknown,190,2013-10-29 23:52:00
7:52 PM,35.1,27.0,72,30.14,-9999.0,SSW,5.8,-,N/A,,Unknown,200,2013-10-30 00:52:00
8:52 PM,34.0,27.0,75,30.13,-9999.0,SSW,5.8,-,N/A,,Unknown,200,2013-10-30 01:52:00
9:52 PM,34.0,27.0,75,30.12,-9999.0,SSW,8.1,-,N/A,,Unknown,200,2013-10-30 02:52:00
10:52 PM,34.0,27.0,75,30.11,-9999.0,SSW,9.2,-,N/A,,Unknown,200,2013-10-30 03:52:00
11:52 PM,34.0,27.0,75,30.10,-9999.0,SSW,10.4,-,N/A,,Unknown,210,2013-10-30 04:52:00